When you browse on this site, cookies collect data to enhance your experience and personalize the content and advertising you see.
Visit our Privacy Policy to learn more. By continuing to use the site, you agree to this use of cookies and data.
  • In Switzerland
  • List of Countries
  • For 7 days
  • Water Temperature
  • Weather Map
  • Weather Widgets
  • user-avatar
    Login

    Hourly Weather Tucupita

    Today, 25 May, Monday

    Time Temperature Precipitation Wind Pressure Humidity
    00:00 +26°C° 0 mm 1 mps 759 mmHg 87%
    01:00 +25°C° 0 mm 1 mps 759 mmHg 90%
    02:00 +25°C° 0 mm 1 mps 758 mmHg 93%
    03:00 +24°C° 0 mm 1 mps 758 mmHg 94%
    04:00 +24°C° 0 mm 1 mps 758 mmHg 96%
    05:00 +24°C° 0 mm 1 mps 758 mmHg 98%
    06:00 +26°C° 0 mm 1 mps 758 mmHg 90%
    07:00 +27°C° 0 mm 1 mps 759 mmHg 82%
    08:00 +29°C° 0 mm 2 mps 759 mmHg 74%
    09:00 +30°C° 0 mm 2 mps 759 mmHg 69%
    10:00 +31°C° 0 mm 2 mps 759 mmHg 63%
    11:00 +34°C° 0 mm 2 mps 759 mmHg 58%
    12:00 +35°C° 0 mm 2 mps 758 mmHg 52%
    13:00 +37°C° 0 mm 2 mps 757 mmHg 46%
    14:00 +39°C° 0 mm 2 mps 757 mmHg 40%
    15:00 +38°C° 0 mm 3 mps 756 mmHg 44%
    16:00 +37°C° 0 mm 3 mps 756 mmHg 48%
    17:00 +36°C° 0 mm 3 mps 756 mmHg 52%
    18:00 +34°C° 0 mm 3 mps 757 mmHg 60%
    19:00 +31°C° 0 mm 3 mps 757 mmHg 68%
    20:00 +29°C° 0 mm 3 mps 758 mmHg 75%
    21:00 +29°C° 0 mm 3 mps 759 mmHg 79%
    22:00 +28°C° 0 mm 2 mps 759 mmHg 83%
    23:00 +27°C° 0 mm 2 mps 759 mmHg 86%

    Tomorrow, 26 May, Tuesday

    Time Temperature Precipitation Wind Pressure Humidity
    00:00 +27°C° 0 mm 2 mps 759 mmHg 89%
    01:00 +26°C° 0 mm 1 mps 758 mmHg 91%
    02:00 +26°C° 0 mm 1 mps 758 mmHg 94%
    03:00 +26°C° 0 mm 1 mps 758 mmHg 95%
    04:00 +25°C° 0 mm 1 mps 758 mmHg 96%
    05:00 +25°C° 0 mm 1 mps 758 mmHg 98%
    06:00 +27°C° 0 mm 1 mps 758 mmHg 90%
    07:00 +28°C° 0 mm 2 mps 759 mmHg 82%
    08:00 +30°C° 0 mm 2 mps 759 mmHg 75%
    09:00 +33°C° 0 mm 3 mps 759 mmHg 65%
    10:00 +35°C° 0 mm 3 mps 759 mmHg 56%
    11:00 +37°C° 0 mm 3 mps 759 mmHg 46%
    12:00 +37°C° 0 mm 3 mps 758 mmHg 43%
    13:00 +38°C° 0 mm 3 mps 757 mmHg 41%
    14:00 +39°C° 0 mm 3 mps 756 mmHg 38%
    15:00 +38°C° 0 mm 3 mps 756 mmHg 42%
    16:00 +37°C° 0 mm 3 mps 756 mmHg 46%
    17:00 +36°C° 0 mm 4 mps 756 mmHg 49%
    18:00 +34°C° 0 mm 3 mps 757 mmHg 57%
    19:00 +31°C° 0 mm 3 mps 757 mmHg 64%
    20:00 +30°C° 0 mm 3 mps 758 mmHg 71%
    21:00 +29°C° 0 mm 3 mps 758 mmHg 75%
    22:00 +28°C° 0 mm 2 mps 759 mmHg 80%
    23:00 +28°C° 0 mm 2 mps 759 mmHg 85%

    Day after tomorrow, 27 May, Wednesday

    Time Temperature Precipitation Wind Pressure Humidity
    00:00 +27°C° 0 mm 2 mps 759 mmHg 86%
    01:00 +27°C° 0 mm 2 mps 758 mmHg 88%
    02:00 +27°C° 0 mm 1 mps 758 mmHg 90%
    03:00 +26°C° 0 mm 1 mps 758 mmHg 91%
    04:00 +26°C° 0 mm 1 mps 758 mmHg 93%
    05:00 +26°C° 0 mm 1 mps 758 mmHg 95%
    06:00 +27°C° 0 mm 1 mps 758 mmHg 88%
    07:00 +28°C° 0 mm 1 mps 759 mmHg 82%
    08:00 +30°C° 0 mm 2 mps 759 mmHg 75%
    09:00 +31°C° 0.1 mm 2 mps 759 mmHg 66%
    10:00 +34°C° 0.1 mm 2 mps 759 mmHg 57%
    11:00 +36°C° 0.1 mm 3 mps 759 mmHg 49%
    12:00 +36°C° 0.3 mm 3 mps 758 mmHg 49%
    13:00 +37°C° 0.3 mm 3 mps 757 mmHg 49%
    14:00 +37°C° 0.3 mm 4 mps 757 mmHg 48%
    15:00 +36°C° 0 mm 4 mps 756 mmHg 52%
    16:00 +35°C° 0 mm 3 mps 756 mmHg 55%
    17:00 +34°C° 0 mm 3 mps 756 mmHg 58%
    18:00 +33°C° 0 mm 3 mps 756 mmHg 62%
    19:00 +30°C° 0 mm 3 mps 757 mmHg 67%
    20:00 +29°C° 0 mm 3 mps 758 mmHg 71%
    21:00 +28°C° 0 mm 2 mps 758 mmHg 75%
    22:00 +28°C° 0 mm 2 mps 758 mmHg 79%
    23:00 +27°C° 0 mm 2 mps 759 mmHg 83%

    28 May, Thursday

    Time Temperature Precipitation Wind Pressure Humidity
    00:00 +27°C° 0 mm 2 mps 758 mmHg 85%
    01:00 +26°C° 0 mm 1 mps 758 mmHg 87%
    02:00 +26°C° 0 mm 1 mps 758 mmHg 89%
    03:00 +26°C° 0 mm 1 mps 758 mmHg 90%
    04:00 +25°C° 0 mm 1 mps 758 mmHg 92%
    05:00 +25°C° 0 mm 1 mps 758 mmHg 93%
    06:00 +27°C° 0 mm 1 mps 758 mmHg 86%
    07:00 +28°C° 0 mm 2 mps 758 mmHg 79%
    08:00 +30°C° 0 mm 2 mps 759 mmHg 72%
    09:00 +31°C° 0.1 mm 2 mps 759 mmHg 64%
    10:00 +34°C° 0.1 mm 3 mps 759 mmHg 55%
    11:00 +36°C° 0.1 mm 3 mps 758 mmHg 47%
    12:00 +36°C° 0 mm 3 mps 758 mmHg 45%
    13:00 +37°C° 0 mm 3 mps 757 mmHg 44%
    14:00 +37°C° 0 mm 3 mps 756 mmHg 42%
    15:00 +36°C° 0 mm 3 mps 756 mmHg 46%
    16:00 +35°C° 0 mm 4 mps 756 mmHg 49%
    17:00 +34°C° 0 mm 4 mps 756 mmHg 53%
    18:00 +33°C° 0 mm 3 mps 756 mmHg 60%
    19:00 +30°C° 0 mm 3 mps 757 mmHg 66%
    20:00 +29°C° 0 mm 2 mps 758 mmHg 72%
    21:00 +28°C° 0 mm 2 mps 758 mmHg 76%
    22:00 +28°C° 0 mm 2 mps 758 mmHg 79%
    23:00 +27°C° 0 mm 2 mps 759 mmHg 83%

    29 May, Friday

    Time Temperature Precipitation Wind Pressure Humidity
    00:00 +27°C° 0 mm 2 mps 758 mmHg 85%
    01:00 +26°C° 0 mm 1 mps 758 mmHg 87%
    02:00 +26°C° 0 mm 1 mps 758 mmHg 89%
    03:00 +26°C° 0.1 mm 1 mps 758 mmHg 91%
    04:00 +25°C° 0.1 mm 1 mps 758 mmHg 94%
    05:00 +25°C° 0.1 mm 1 mps 758 mmHg 97%
    06:00 +26°C° 0 mm 1 mps 758 mmHg 89%
    07:00 +28°C° 0 mm 2 mps 759 mmHg 81%
    08:00 +30°C° 0 mm 3 mps 759 mmHg 73%
    09:00 +33°C° 0.1 mm 3 mps 759 mmHg 63%
    10:00 +35°C° 0.1 mm 3 mps 758 mmHg 53%
    11:00 +37°C° 0.1 mm 3 mps 758 mmHg 43%
    12:00 +37°C° 0 mm 3 mps 758 mmHg 42%
    13:00 +37°C° 0 mm 3 mps 757 mmHg 41%
    14:00 +38°C° 0 mm 3 mps 756 mmHg 40%
    15:00 +37°C° 0 mm 3 mps 756 mmHg 44%
    16:00 +35°C° 0 mm 3 mps 756 mmHg 48%
    17:00 +34°C° 0 mm 3 mps 755 mmHg 51%
    18:00 +33°C° 0 mm 3 mps 756 mmHg 57%
    19:00 +30°C° 0 mm 3 mps 757 mmHg 64%
    20:00 +29°C° 0 mm 3 mps 758 mmHg 70%
    21:00 +28°C° 0 mm 2 mps 758 mmHg 75%
    22:00 +27°C° 0 mm 2 mps 758 mmHg 81%
    23:00 +26°C° 0 mm 1 mps 759 mmHg 86%

    30 May, Saturday

    Time Temperature Precipitation Wind Pressure Humidity
    00:00 +26°C° 0 mm 1 mps 758 mmHg 89%
    01:00 +25°C° 0 mm 1 mps 758 mmHg 92%
    02:00 +25°C° 0 mm 1 mps 758 mmHg 95%
    03:00 +25°C° 0 mm 1 mps 758 mmHg 96%
    04:00 +25°C° 0 mm 1 mps 758 mmHg 97%
    05:00 +24°C° 0 mm 1 mps 757 mmHg 98%
    06:00 +26°C° 0.1 mm 1 mps 758 mmHg 92%
    07:00 +27°C° 0.1 mm 1 mps 758 mmHg 86%
    08:00 +28°C° 0.1 mm 2 mps 759 mmHg 80%
    09:00 +30°C° 0.1 mm 2 mps 758 mmHg 70%
    10:00 +34°C° 0.1 mm 2 mps 758 mmHg 59%
    11:00 +36°C° 0.1 mm 3 mps 758 mmHg 49%
    12:00 +36°C° 0.1 mm 3 mps 758 mmHg 47%
    13:00 +37°C° 0.1 mm 3 mps 757 mmHg 45%
    14:00 +37°C° 0.1 mm 3 mps 756 mmHg 42%
    15:00 +37°C° 0 mm 3 mps 756 mmHg 45%
    16:00 +36°C° 0 mm 3 mps 756 mmHg 47%
    17:00 +35°C° 0 mm 3 mps 756 mmHg 49%
    18:00 +34°C° 0 mm 3 mps 756 mmHg 55%
    19:00 +31°C° 0 mm 3 mps 757 mmHg 61%
    20:00 +29°C° 0 mm 3 mps 758 mmHg 67%
    21:00 +28°C° 0 mm 2 mps 758 mmHg 74%
    22:00 +27°C° 0 mm 2 mps 759 mmHg 80%
    23:00 +26°C° 0 mm 1 mps 759 mmHg 87%
    Show more